When you browse on this site, cookies collect data to enhance your experience and personalize the content and advertising you see.
Visit our Privacy Policy to learn more. By continuing to use the site, you agree to this use of cookies and data.
  • In Hungary
  • List of Countries
  • For 7 days
  • Water Temperature
  • Satellite Maps
  • Weather Map
  • News
  • Weather Widgets
  • user-avatar
    Login

    Hourly Weather Novaya Maka

    Today, 20 November, Tuesday

    Time Temperature Precipitation Wind Pressure Humidity
    00:00 +7°C° 0 mm 3 mps 751 mmHg 64%
    01:00 +7°C° 0 mm 3 mps 750 mmHg 63%
    02:00 +7°C° 0 mm 3 mps 750 mmHg 62%
    03:00 +7°C° 0 mm 3 mps 749 mmHg 63%
    04:00 +7°C° 0 mm 3 mps 749 mmHg 63%
    05:00 +8°C° 0 mm 3 mps 749 mmHg 63%
    06:00 +8°C° 0 mm 3 mps 749 mmHg 63%
    07:00 +9°C° 0 mm 3 mps 748 mmHg 60%
    08:00 +11°C° 0 mm 3 mps 748 mmHg 57%
    09:00 +13°C° 0 mm 2 mps 747 mmHg 54%
    10:00 +14°C° 0 mm 2 mps 747 mmHg 52%
    11:00 +15°C° 0 mm 2 mps 746 mmHg 50%
    12:00 +16°C° 0 mm 2 mps 746 mmHg 49%
    13:00 +16°C° 0 mm 1 mps 745 mmHg 51%
    14:00 +16°C° 0 mm 1 mps 745 mmHg 53%
    15:00 +16°C° 0 mm 1 mps 744 mmHg 56%
    16:00 +15°C° 0 mm 2 mps 744 mmHg 60%
    17:00 +14°C° 0 mm 2 mps 744 mmHg 64%
    18:00 +11°C° 0 mm 3 mps 744 mmHg 69%
    19:00 +11°C° 0 mm 3 mps 744 mmHg 67%
    20:00 +11°C° 0 mm 3 mps 744 mmHg 65%
    21:00 +11°C° 0 mm 3 mps 743 mmHg 64%
    22:00 +11°C° 0 mm 3 mps 743 mmHg 65%
    23:00 +11°C° 0 mm 3 mps 743 mmHg 66%

    Tomorrow, 21 November, Wednesday

    Time Temperature Precipitation Wind Pressure Humidity
    00:00 +11°C° 0 mm 3 mps 743 mmHg 67%
    01:00 +10°C° 0 mm 4 mps 743 mmHg 69%
    02:00 +10°C° 0 mm 4 mps 743 mmHg 71%
    03:00 +8°C° 0 mm 5 mps 743 mmHg 73%
    04:00 +8°C° 0 mm 5 mps 743 mmHg 74%
    05:00 +8°C° 0 mm 5 mps 743 mmHg 76%
    06:00 +8°C° 0 mm 5 mps 744 mmHg 78%
    07:00 +8°C° 0 mm 5 mps 744 mmHg 74%
    08:00 +10°C° 0 mm 4 mps 744 mmHg 71%
    09:00 +11°C° 0 mm 4 mps 745 mmHg 67%
    10:00 +11°C° 0 mm 4 mps 744 mmHg 68%
    11:00 +12°C° 0 mm 5 mps 744 mmHg 68%
    12:00 +12°C° 0 mm 5 mps 744 mmHg 68%
    13:00 +10°C° 0.2 mm 5 mps 744 mmHg 74%
    14:00 +9°C° 0.2 mm 5 mps 744 mmHg 79%
    15:00 +8°C° 0.2 mm 5 mps 744 mmHg 85%
    16:00 +8°C° 0.5 mm 5 mps 745 mmHg 87%
    17:00 +8°C° 0.5 mm 5 mps 745 mmHg 89%
    18:00 +7°C° 0.5 mm 4 mps 745 mmHg 91%
    19:00 +7°C° 0.1 mm 4 mps 745 mmHg 90%
    20:00 +7°C° 0.1 mm 4 mps 746 mmHg 90%
    21:00 +7°C° 0.1 mm 3 mps 746 mmHg 90%
    22:00 +7°C° 0 mm 3 mps 746 mmHg 90%
    23:00 +7°C° 0 mm 3 mps 746 mmHg 90%

    Day after tomorrow, 22 November, Thursday

    Time Temperature Precipitation Wind Pressure Humidity
    00:00 +7°C° 0 mm 2 mps 746 mmHg 91%
    01:00 +7°C° 0 mm 2 mps 745 mmHg 91%
    02:00 +7°C° 0 mm 2 mps 745 mmHg 91%
    03:00 +6°C° 0 mm 2 mps 745 mmHg 91%
    04:00 +6°C° 0 mm 2 mps 745 mmHg 91%
    05:00 +6°C° 0 mm 2 mps 745 mmHg 90%
    06:00 +6°C° 0 mm 2 mps 745 mmHg 90%
    07:00 +7°C° 0 mm 2 mps 745 mmHg 87%
    08:00 +8°C° 0 mm 2 mps 746 mmHg 85%
    09:00 +8°C° 0 mm 2 mps 746 mmHg 82%
    10:00 +9°C° 0 mm 2 mps 745 mmHg 82%
    11:00 +9°C° 0 mm 2 mps 745 mmHg 82%
    12:00 +9°C° 0 mm 2 mps 745 mmHg 82%
    13:00 +9°C° 0 mm 2 mps 745 mmHg 84%
    14:00 +9°C° 0 mm 2 mps 744 mmHg 86%
    15:00 +9°C° 0 mm 2 mps 744 mmHg 88%
    16:00 +8°C° 0 mm 2 mps 744 mmHg 89%
    17:00 +8°C° 0 mm 2 mps 745 mmHg 91%
    18:00 +8°C° 0 mm 2 mps 745 mmHg 92%
    19:00 +7°C° 0 mm 2 mps 745 mmHg 91%
    20:00 +8°C° 0 mm 1 mps 745 mmHg 90%
    21:00 +8°C° 0 mm 1 mps 745 mmHg 90%
    22:00 +8°C° 0 mm 1 mps 745 mmHg 89%
    23:00 +8°C° 0 mm 1 mps 745 mmHg 88%

    23 November, Friday

    Time Temperature Precipitation Wind Pressure Humidity
    00:00 +7°C° 0 mm 2 mps 745 mmHg 88%
    01:00 +7°C° 0 mm 2 mps 745 mmHg 87%
    02:00 +7°C° 0 mm 2 mps 745 mmHg 87%
    03:00 +7°C° 0 mm 2 mps 745 mmHg 87%
    04:00 +7°C° 0 mm 2 mps 745 mmHg 87%
    05:00 +7°C° 0 mm 2 mps 745 mmHg 86%
    06:00 +7°C° 0 mm 2 mps 745 mmHg 86%
    07:00 +7°C° 0 mm 2 mps 745 mmHg 83%
    08:00 +8°C° 0 mm 2 mps 745 mmHg 81%
    09:00 +9°C° 0 mm 2 mps 746 mmHg 79%
    10:00 +9°C° 0 mm 2 mps 745 mmHg 79%
    11:00 +10°C° 0 mm 2 mps 745 mmHg 79%
    12:00 +10°C° 0 mm 3 mps 744 mmHg 79%
    13:00 +10°C° 0 mm 3 mps 745 mmHg 81%
    14:00 +9°C° 0 mm 3 mps 745 mmHg 84%
    15:00 +9°C° 0 mm 3 mps 745 mmHg 87%
    16:00 +8°C° 0 mm 3 mps 746 mmHg 89%
    17:00 +8°C° 0 mm 3 mps 746 mmHg 90%
    18:00 +7°C° 0 mm 3 mps 747 mmHg 92%
    19:00 +6°C° 0.3 mm 4 mps 748 mmHg 92%
    20:00 +6°C° 0.3 mm 5 mps 749 mmHg 91%
    21:00 +4°C° 0.3 mm 6 mps 750 mmHg 91%
    22:00 +4°C° 0 mm 6 mps 750 mmHg 89%
    23:00 +3°C° 0 mm 7 mps 751 mmHg 87%

    24 November, Saturday

    Time Temperature Precipitation Wind Pressure Humidity
    00:00 +3°C° 0 mm 7 mps 752 mmHg 86%
    01:00 +2°C° 0 mm 6 mps 752 mmHg 86%
    02:00 +2°C° 0 mm 6 mps 753 mmHg 86%
    03:00 +1°C° 0 mm 5 mps 753 mmHg 86%
    04:00 +1°C° 0 mm 5 mps 754 mmHg 86%
    05:00 +1°C° 0 mm 4 mps 755 mmHg 86%
    06:00 +1°C° 0 mm 4 mps 755 mmHg 86%
    07:00 +1°C° 0 mm 4 mps 756 mmHg 83%
    08:00 +3°C° 0 mm 3 mps 757 mmHg 81%
    09:00 +3°C° 0 mm 3 mps 757 mmHg 78%
    10:00 +4°C° 0 mm 3 mps 757 mmHg 76%
    11:00 +6°C° 0 mm 2 mps 757 mmHg 75%
    12:00 +6°C° 0 mm 2 mps 757 mmHg 73%
    13:00 +5°C° 0 mm 3 mps 757 mmHg 74%
    14:00 +5°C° 0 mm 3 mps 757 mmHg 75%
    15:00 +5°C° 0 mm 4 mps 757 mmHg 76%
    16:00 +5°C° 0 mm 4 mps 757 mmHg 78%
    17:00 +4°C° 0 mm 4 mps 757 mmHg 79%
    18:00 +3°C° 0 mm 5 mps 757 mmHg 81%
    19:00 +3°C° 0 mm 5 mps 757 mmHg 80%
    20:00 +3°C° 0 mm 5 mps 757 mmHg 78%
    21:00 +5°C° 0 mm 5 mps 756 mmHg 77%
    22:00 +5°C° 0 mm 5 mps 756 mmHg 75%
    23:00 +5°C° 0 mm 5 mps 755 mmHg 73%

    25 November, Sunday

    Time Temperature Precipitation Wind Pressure Humidity
    00:00 +5°C° 0 mm 5 mps 755 mmHg 72%
    01:00 +5°C° 0 mm 5 mps 754 mmHg 70%
    02:00 +5°C° 0 mm 4 mps 753 mmHg 69%
    03:00 +6°C° 0 mm 4 mps 753 mmHg 67%
    04:00 +6°C° 0 mm 4 mps 752 mmHg 65%
    05:00 +7°C° 0 mm 3 mps 752 mmHg 63%
    06:00 +7°C° 0 mm 3 mps 751 mmHg 61%
    07:00 +8°C° 0 mm 3 mps 751 mmHg 58%
    08:00 +10°C° 0 mm 2 mps 750 mmHg 54%
    09:00 +12°C° 0 mm 2 mps 750 mmHg 51%
    10:00 +13°C° 0 mm 2 mps 749 mmHg 50%
    11:00 +14°C° 0 mm 2 mps 748 mmHg 49%
    12:00 +15°C° 0 mm 2 mps 748 mmHg 48%
    13:00 +14°C° 0 mm 2 mps 747 mmHg 51%
    14:00 +14°C° 0 mm 2 mps 747 mmHg 55%
    15:00 +13°C° 0 mm 2 mps 747 mmHg 59%
    16:00 +12°C° 0 mm 2 mps 747 mmHg 62%
    17:00 +10°C° 0 mm 2 mps 747 mmHg 65%
    18:00 +9°C° 0 mm 2 mps 747 mmHg 68%
    19:00 +9°C° 0 mm 2 mps 747 mmHg 67%
    20:00 +9°C° 0 mm 2 mps 747 mmHg 65%
    21:00 +9°C° 0 mm 2 mps 746 mmHg 64%
    22:00 +8°C° 0 mm 2 mps 746 mmHg 64%
    23:00 +9°C° 0 mm 1 mps 746 mmHg 63%
    Show more